STARLINK-32237, 60443

Orbit data source: Space-Track

STARLINK-32237, 60443 is a payload satellite owned by SpaceX/Seattle (US) in LEO that was launched on Mon, 12 Aug 2024 UTC via an FALCON 9 launch vehicle from the Air Force Eastern Test Range (AFETR). Payload-class satellites include a variety of spacecraft equipped with specific instruments for various scientific and technological missions. These include communications satellites like Starlink; space stations such as the ISS; scientific satellites like the Hubble; Earth observation satellites from companies like Planet Labs, Umbra, and HawkEye 360; GPS; miniature CubeSats for education and research; and military/defense satellites.

Loading next visibility...
Identifier
60443, 2024-144U
Orbit
LEO
Country
Flag of USUS
Related business
Manufacturer
SpaceX/Seattle
Mission
Operational Commercial Communications
Bus & Motor
STARLINK V2M, Unknown motor
Mass
730 kg wet, ~700 kg dry
Launch date (UTC)
2024-08-12 (2 years ago)
Launch vehicle
FALCON 9
Launch site
Air Force Eastern Test Range (AFETR)
Object type
Payload
Rocket body
Debris
Shape & HBR
Box + 2 Pan, 17.7 m
Radar Cross Section
33.884 m², Large (>1 m²)

Expand to show TLE details & history
Last TLE update: 1 day ago

TLE from 1 day ago
0 STARLINK-32237
1 60443U 24144U   26170.53942954  .00000457  00000-0  24659-4 0  9995
2 60443  53.1608 102.5743 0001436  95.3412 264.7754 15.34390053104926
Epoch: 2026-06-19T12:56Z
TLE epoch observation values (Epoch: 2026-06-19T12:56:46.712Z)
Latitude
-0.00005°
Longitude
0.61268°
Altitude
463.724 km
Speed
7.636 km/s
True Right ascension
06h 50m 17s
True Declination
0° 00' 00"
Sunlit
Object was in daylight at epoch
Visualization orbit readout
Latitude
Unknown
Longitude
Unknown
Altitude
Unknown
Speed
Unknown
Apparent Right ascension
Unknown
Apparent Declination
Unknown
Sunlit
N/A
Visualization observer readout
Local Sidereal Time
07:14:55
Azimuth
Unknown
Elevation
Unknown
Doppler factor
Unknown
Orbital elements
Apogee altitude
463.972 km
Perigee altitude
462.007 km
Semi-major axis
6,841.127 km
Eccentricity
0.00014
Inclination
53.1608°
RAAN
102.5743°
Arg. of periapsis
95.3412°
True anomaly
264.75901°
Mean anomaly
264.7754°
Eccentric anomaly
264.76721°
Mean motion
3.83576 °/min
Orbital period
93.85 mins
BSTAR
0.000024659
Loading maneuver chart data...
Computing Atmospheric mass density...
Loading historical data...
Loading historical data...
Loading historical data...
Loading historical data...
Loading historical data...
Loading historical data...
Loading historical data...

Documentation

Showing up to 5 results
|